Location: Songkhla
(7.2000°N, 100.6000°E)
Time: 20:58:07
(UTC+07:00)

Cosmos 2218 Rocket - Pass Details

Date: 16 April 2026
Orbit: 956 x 1005 km, 82.9° (Epoch: 20 May)

Event Time Altitude Azimuth Distance (km) Brightness Sun altitude
Rises 20:19:34 0° 187° (S) 3,655 6.9 -28.3°
Reaches altitude 10° 20:22:05 10° 188° (S) 2,701 6.2 -28.9°
Maximum altitude 20:28:15 75° 273° (W) 991 4.0 -30.3°
Drops below altitude 10° 20:34:21 10° 358° (N) 2,677 6.5 -31.8°
Sets 20:36:51 0° 0° (N) 3,621 7.2 -32.4°
